BREEZE-M DEB (TANK) - Orbit

View from above orbital plane
View from above orbital plane
View from above satellite
View from above satellite

Ground track
Ground track

The orbit data is extracted from the following two-line orbital elements,

1 35875U 09050C   13138.53020223  .00003038  00000-0  81249-3 0  4700
2 35875 049.3885 315.6597 6062595 238.5115 133.6059 03.93645463 52244
Epoch (UTC): 18 May 2013 12:43:29
Eccentricity: 0.6062595
inclination: 49.3885°
perigee height: 293 km
apogee height: 20837 km
right ascension of ascending node: 315.6597°
argument of perigee: 238.5115°
revolutions per day: 3.93645463
mean anomaly at epoch: 133.6059°
orbit number at epoch: 5224

The dashed part of the orbit path shows where the satellite is in the earth's shadow,  

Developed and maintained by Chris Peat, Heavens-Above GmbH. Please read the updated FAQ before sending e-mail. Imprint. DLR